Location: DARK SKY Beskydy - Park tmavé oblohy, www.darkskybeskydy.cz
(49.4926°N, 18.5016°E)
Time: 18:49:55
(UTC+02:00)

PCSat - Pass Details

Date: 09 August 2024
Orbit: 781 x 793 km, 67.1° (Epoch: 08 September)

Event Time Altitude Azimuth Distance (km) Brightness Sun altitude
Rises 03:18:24 0° 320° (NW) 3,301 13.0 -17.1°
Reaches altitude 10° 03:20:56 10° 313° (NW) 2,367 12.1 -16.9°
Maximum altitude 03:25:59 41° 245° (WSW) 1,147 10.0 -16.4°
Enters shadow 03:29:10 20° 187° (S) 1,740 10.9 -16.1°
